Voltar ao catálogo

COSMOS 714

AtivoMilitarLEO
NORAD 7681·PAYLOAD·🇷🇺 Russia

Lançado Feb 28, 1975 de Plesetsk Cosmodrome

Loading…

Próximas Passagens (próximas 24 horas)

TLE

AtualizadoSource: Space-Track

Época: Sep 14, 2026, 15:06 UTC

1 07681U 75016D   26257.62934734 -.00000005  00000-0  73337-4 0  9994
2 07681  74.0036 197.4033 0029485  12.0161 162.3528 12.49304584350690

Acompanhe COSMOS 714 em tempo real com AllMySat

Download on the App Store